Location: Unspecified
(0.0000°N, 0.0000°E)
Time: 06:03:04
(UTC+00:00)

S-56A Canister/Altair - Pass Details

Date: 31 May 2024
Orbit: 637 x 2489 km, 38.9° (Epoch: 21 June)

Event Time Altitude Azimuth Distance (km) Brightness Sun altitude
Rises 12:40:32 0° 299° (WNW) 3,671 11.3 65.6°
Reaches altitude 10° 12:43:37 10° 292° (WNW) 2,490 10.6 65.3°
Maximum altitude 12:48:48 39° 224° (SW) 1,053 8.7 64.7°
Drops below altitude 10° 12:53:03 10° 153° (SSE) 2,039 9.6 64.2°
Sets 12:55:21 0° 145° (SE) 2,925 10.3 63.9°
